DW0000 Weather Reports


time (UTC)temp
F
wind
direction
speed
knots
gust
knots
rain 1hr
in
rain 24hr
in
rain mn
in
humidity
%
barometer
mb
20260902085007 54 264 7.8 15.6 0.00 0.01 0.01 93 1019.0
20260902084507 54 270 7.8 14.8 0.00 0.01 0.01 93 1018.9
20260902082507 54 240 10.4 18.2 0.00 0.00 0.00 93 1019.1
20260902082006 54 246 7.0 13.9 0.00 0.00 0.00 93 1019.2
20260902081505 54 256 6.1 11.3 0.00 0.00 0.00 93 1019.0
20260902081007 54 259 7.8 13.9 0.00 0.00 0.00 92 1019.0
20260902080006 54 247 7.8 13.0 0.00 0.00 0.00 92 1019.1
20260902075006 54 252 7.0 12.2 0.00 0.00 0.00 91 1019.1
20260902074008 54 273 6.1 13.0 0.00 0.00 0.00 90 1019.1
20260902073506 54 298 5.2 13.0 0.00 0.00 0.00 89 1018.9
20260902071506 55 253 7.8 13.0 0.00 0.00 0.00 89 1019.1
20260902070007 55 235 14.8 20.9 0.00 0.00 0.00 89 1019.1
20260902064506 55 270 7.8 14.8 0.00 0.00 0.00 90 1018.8
20260902063506 55 265 7.8 18.2 0.00 0.00 0.00 90 1018.8
20260902062507 55 254 8.7 18.2 0.00 0.00 0.00 90 1018.9
20260902062006 55 284 9.6 21.7 0.00 0.00 0.00 91 1018.3
20260902055006 55 259 10.4 19.1 0.00 0.00 0.00 92 1018.7
20260902053507 55 277 8.7 18.2 0.00 0.00 0.00 92 1018.6
20260902052007 56 294 13.9 24.3 0.00 0.00 0.00 91 1018.5
20260902051005 56 256 9.6 17.4 0.00 0.00 0.00 91 1018.7
20260902050507 56 293 7.8 18.2 0.00 0.00 0.00 91 1018.4
20260902050008 56 303 8.7 18.2 0.00 0.00 0.00 90 1018.6
20260902045505 56 276 8.7 20.0 0.00 0.00 0.00 89 1018.7
20260902045006 56 259 8.7 20.0 0.00 0.00 0.00 89 1018.5
20260902044507 57 255 12.2 26.1 0.00 0.00 0.00 88 1018.7
20260902044005 57 279 13.9 24.3 0.00 0.00 0.00 87 1018.5
20260902042006 58 252 10.4 14.8 0.00 0.00 0.00 82 1018.7
20260902041005 59 254 10.4 15.6 0.00 0.00 0.00 82 1018.6
20260902040507 59 257 10.4 18.2 0.00 0.00 0.00 81 1018.6
20260902035505 59 257 7.8 17.4 0.00 0.00 0.00 82 1018.6
20260902033507 59 292 12.2 22.6 0.00 0.00 0.00 82 1018.8
20260902032505 60 260 11.3 19.1 0.00 0.00 0.00 80 1018.7
20260902030506 61 288 6.1 17.4 0.00 0.00 0.00 77 1018.6
20260902030005 61 257 11.3 18.2 0.00 0.00 0.00 76 1018.7
20260902025505 61 257 10.4 17.4 0.00 0.00 0.00 76 1018.6
20260902024505 62 278 8.7 21.7 0.00 0.00 0.00 76 1019.0
20260902024005 61 251 10.4 18.2 0.00 0.00 0.00 77 1018.9
20260902021005 61 265 12.2 20.9 0.00 0.00 0.00 77 1019.2
20260902015007 64 264 11.3 19.1 0.00 0.00 0.00 74 1019.0
20260902014005 64 262 10.4 20.0 0.00 0.00 0.00 78 1019.3
20260902013505 63 279 8.7 18.2 0.00 0.00 0.00 77 1019.3
20260902013008 64 255 10.4 20.0 0.00 0.00 0.00 75 1019.3
20260902012505 64 289 9.6 21.7 0.00 0.00 0.00 75 1019.4
20260902011506 63 269 10.4 21.7 0.00 0.00 0.00 75 1019.6
20260902011004 63 263 12.2 20.9 0.00 0.00 0.00 77 1019.7
20260902010505 63 246 10.4 20.9 0.00 0.00 0.00 78 1019.5
20260902010006 63 301 11.3 20.9 0.00 0.00 0.00 78 1019.7
20260902004004 62 272 10.4 20.9 0.00 0.00 0.00 79 1019.8
20260902003507 61 268 8.7 20.0 0.00 0.00 0.00 81 1019.9
20260902003005 60 282 11.3 21.7 0.00 0.00 0.00 80 1019.8
20260902002505 60 271 11.3 19.1 0.00 0.00 0.00 77 1020.2
20260902002006 62 258 10.4 24.3 0.00 0.00 0.00 75 1020.3
20260902001505 63 296 13.9 22.6 0.00 0.00 0.00 77 1020.1
20260902000506 62 266 10.4 20.9 0.00 0.00 0.00 78 1020.1
20260902000005 62 295 13.0 20.9 0.00 0.00 0.00 78 1020.2
20260901235505 62 262 12.2 21.7 0.00 0.00 0.00 77 1020.1
20260901235007 62 258 11.3 20.0 0.00 0.00 0.00 77 1020.3
20260901231005 61 251 8.7 18.2 0.00 0.00 0.00 78 1020.3
20260901230006 63 255 11.3 24.3 0.00 0.00 0.00 77 1020.1
20260901224006 62 295 8.7 20.0 0.00 0.00 0.00 79 1020.0
20260901223505 62 252 11.3 20.0 0.00 0.00 0.00 79 1020.2
20260901223006 61 275 8.7 20.9 0.00 0.00 0.00 78 1020.2
20260901222506 61 275 8.7 20.9 0.00 0.00 0.00 77 1020.1
20260901222005 61 251 10.4 19.1 0.00 0.00 0.00 76 1020.0
20260901221006 61 284 11.3 21.7 0.00 0.00 0.00 76 1020.1
20260901215005 60 261 8.7 18.2 0.00 0.00 0.00 78 1020.2
20260901214005 60 268 8.7 19.1 0.00 0.00 0.00 78 1020.2
20260901212005 59 271 10.4 17.4 0.00 0.00 0.00 77 1020.2
20260901211004 59 256 11.3 22.6 0.00 0.00 0.00 78 1020.3
20260901210507 58 254 12.2 22.6 0.00 0.00 0.00 78 1020.2
20260901210005 58 243 12.2 18.2 0.00 0.00 0.00 80 1020.2
20260901205505 58 260 8.7 15.6 0.00 0.00 0.00 81 1019.9
20260901204506 57 264 8.7 20.0 0.00 0.00 0.00 83 1019.9
20260901203506 57 253 11.3 19.1 0.00 0.00 0.00 83 1019.8
20260901203005 56 258 11.3 19.1 0.00 0.00 0.00 83 1019.7
20260901201506 55 256 10.4 20.9 0.00 0.00 0.00 86 1019.9
20260901200504 55 252 13.9 21.7 0.00 0.00 0.00 87 1019.7
20260901195506 54 256 12.2 20.0 0.00 0.00 0.00 87 1019.7
20260901194504 54 259 9.6 19.1 0.00 0.00 0.00 87 1019.5
20260901194006 54 251 13.9 21.7 0.00 0.00 0.00 86 1019.6
20260901193504 54 279 9.6 20.0 0.00 0.00 0.00 87 1019.5
20260901193005 54 249 11.3 20.9 0.00 0.00 0.00 87 1019.4
20260901192506 54 250 13.9 25.2 0.00 0.00 0.00 87 1019.4
20260901190505 54 260 13.9 20.9 0.00 0.00 0.00 86 1019.2
20260901190005 53 252 11.3 20.0 0.00 0.00 0.00 85 1019.2
20260901185504 53 253 10.4 19.1 0.00 0.00 0.00 84 1019.4
20260901185006 53 258 10.4 26.1 0.00 0.00 0.00 83 1019.2
20260901184504 53 258 11.3 20.9 0.00 0.00 0.00 82 1019.2
20260901183005 53 256 9.6 21.7 0.00 0.01 0.00 82 1019.0
20260901182504 53 249 14.8 21.7 0.00 0.03 0.00 83 1019.1
20260901181506 53 256 11.3 20.0 0.00 0.03 0.00 84 1018.9
20260901181005 53 254 10.4 15.6 0.00 0.03 0.00 83 1018.9
20260901180504 53 264 8.7 20.0 0.00 0.03 0.00 82 1019.0
20260901175005 53 256 9.6 18.2 0.00 0.03 0.00 81 1018.9
20260901173504 54 250 13.0 19.1 0.00 0.03 0.00 82 1018.8
20260901173005 53 254 12.2 19.1 0.00 0.03 0.00 83 1018.8
20260901172006 53 249 12.2 18.2 0.00 0.03 0.00 84 1018.6
20260901171504 53 250 10.4 15.6 0.00 0.03 0.00 84 1018.6
20260901171004 53 263 8.7 15.6 0.00 0.03 0.00 83 1018.7
20260901170004 53 253 10.4 17.4 0.00 0.03 0.00 83 1018.6
20260901165508 53 260 11.3 17.4 0.00 0.04 0.00 82 1018.7
20260901164506 53 247 11.3 17.4 0.00 0.05 0.00 81 1018.6
20260901164008 54 251 10.4 18.2 0.00 0.05 0.00 80 1018.7
20260901163506 54 247 9.6 20.0 0.00 0.05 0.00 79 1018.7
20260901163008 54 232 14.8 20.0 0.00 0.05 0.00 79 1018.6
20260901161008 53 249 13.9 20.9 0.00 0.05 0.00 79 1018.4
20260901160506 53 247 13.9 19.1 0.00 0.05 0.00 79 1018.6
20260901160006 53 250 11.3 20.9 0.00 0.05 0.00 78 1018.4
20260901155508 53 249 15.6 21.7 0.00 0.05 0.00 79 1018.6
20260901153508 53 258 10.4 19.1 0.00 0.05 0.00 80 1018.2
20260901151507 52 248 12.2 17.4 0.00 0.05 0.00 86 1018.4
20260901151006 52 252 7.8 12.2 0.00 0.05 0.00 86 1018.7
20260901150007 52 248 7.8 12.2 0.00 0.05 0.00 86 1018.9
20260901144506 53 244 9.6 17.4 0.00 0.05 0.00 86 1019.1
20260901144008 53 228 13.0 20.9 0.00 0.05 0.00 85 1019.1
20260901143508 53 220 12.2 20.9 0.00 0.06 0.00 81 1019.1
20260901142508 53 244 13.0 20.0 0.00 0.06 0.00 80 1019.1
20260901141506 53 251 10.4 21.7 0.00 0.06 0.00 81 1019.1
20260901141008 53 253 12.2 20.0 0.00 0.06 0.00 81 1019.1
20260901140506 53 239 12.2 20.0 0.00 0.06 0.00 81 1019.2
20260901140006 53 259 9.6 19.1 0.00 0.06 0.00 80 1019.3
20260901135008 53 240 13.9 20.9 0.00 0.06 0.00 80 1019.4
20260901134506 53 245 13.9 20.0 0.00 0.06 0.00 79 1019.6
20260901134006 53 242 14.8 25.2 0.00 0.06 0.00 78 1019.5
20260901132006 54 253 13.9 26.9 0.00 0.06 0.00 77 1019.4
20260901131507 54 245 19.1 26.9 0.00 0.06 0.00 78 1019.3
20260901131006 54 245 12.2 19.1 0.00 0.06 0.00 77 1019.5
20260901130006 53 246 14.8 21.7 0.00 0.06 0.00 78 1019.3
20260901125507 53 248 13.0 25.2 0.00 0.06 0.00 79 1019.2
20260901124008 53 251 13.0 18.2 0.00 0.06 0.00 79 1019.1
20260901121007 53 246 10.4 18.2 0.00 0.08 0.00 75 1019.0
20260901115506 53 251 13.0 25.2 0.00 0.08 0.08 74 1019.0
20260901114008 53 244 16.5 25.2 0.00 0.11 0.08 76 1019.2
20260901113506 54 255 10.4 20.0 0.00 0.11 0.08 78 1019.2
20260901112008 54 251 13.0 25.2 0.00 0.11 0.08 77 1018.7
20260901111506 54 254 11.3 21.7 0.00 0.11 0.08 77 1019.1
20260901110508 54 258 12.2 20.9 0.00 0.11 0.08 78 1019.0
20260901110005 54 249 13.0 18.2 0.00 0.11 0.08 78 1018.9
20260901105008 54 241 12.2 17.4 0.00 0.11 0.08 77 1019.4
20260901104506 54 246 11.3 17.4 0.00 0.11 0.08 75 1019.3
20260901103006 54 250 11.3 18.2 0.00 0.11 0.08 73 1019.3
20260901102506 54 251 10.4 15.6 0.00 0.11 0.08 73 1019.2
20260901102007 54 242 13.9 18.2 0.00 0.11 0.08 72 1019.2
20260901100008 54 251 8.7 18.2 0.00 0.11 0.08 71 1019.2
20260901091507 54 241 10.4 20.9 0.00 0.11 0.08 75 1019.0
20260901090007 55 247 11.3 20.0 0.00 0.11 0.08 79 1018.7